Location: *
(48.8667°N, 2.3331°E)
Time: 13:21:42
(UTC+00:00)

SL-4 R/B - Pass Details

Date: 09 April 2020
Orbit: 428 x 666 km, 51.6° (Epoch: 25 May)

Event Time Altitude Azimuth Distance (km) Brightness Sun altitude
Rises 19:00:53 0° 244° (WSW) 2,401 6.1 -5.1°
Reaches altitude 10° 19:02:59 10° 243° (WSW) 1,525 5.0 -5.4°
Maximum altitude 19:06:23 79° 158° (SSE) 442 1.5 -5.9°
Drops below altitude 10° 19:09:49 10° 71° (ENE) 1,540 3.8 -6.5°
Enters shadow 19:11:15 - 70° (ENE) 2,139 4.6 -6.7°
